DateTimeUTC,F1_A11,F1_S11,BsB_S11,BsG_S11,BsR_S11,BbsB_S11,BbsG_S11,BbsR_S11,BaB_A11,BaG_A11,BaR_A11,Tu_S11,T_S11,Uu_S11,U_S11,P_S11,T1_A11
2021-08-18T14:00:00Z,00000200,20000000,,,,,,,0000.15,0000.06,0000.01,20.1,26.6,11.7,07.9,0678.0,31.1
2021-08-18T14:01:00Z,00000200,20000000,,,,,,,0000.01,0000.05,-000.07,20.1,26.6,11.7,07.9,0678.0,31.1
2021-08-18T14:02:00Z,00000200,20000000,,,,,,,0000.25,0000.05,0000.32,20.1,26.6,11.7,07.9,0678.0,31.1
2021-08-18T14:03:00Z,00000200,60000000,,,,,,,-000.13,0000.50,-000.13,20.1,26.6,11.7,07.9,0678.0,31.1
2021-08-18T14:04:00Z,00000200,40000000,0000.78,0001.19,0000.13,0000.52,0000.40,-000.39,0000.44,0000.01,0000.10,20.3,26.4,11.9,08.2,0678.9,31.1
2021-08-18T14:05:00Z,00000200,00000000,0001.74,0000.92,0000.44,0000.13,-000.06,0000.15,0000.47,0000.58,0000.31,20.3,26.4,12.0,08.3,0678.9,31.1
2021-08-18T14:06:00Z,00000200,00000000,0001.55,0001.11,0000.37,0000.82,0000.27,0000.23,0000.12,0000.28,0000.32,20.3,26.4,12.0,08.3,0679.0,31.1
2021-08-18T14:07:00Z,00000200,00000000,0001.22,0000.92,0000.80,0000.07,0000.30,0000.46,0000.30,0000.23,-000.12,20.3,26.4,12.0,08.4,0679.0,31.1
2021-08-18T14:08:00Z,00000200,00000000,0000.81,0001.24,0000.56,0000.29,0000.36,-000.15,0000.33,0000.20,0000.55,20.3,26.4,12.1,08.4,0679.0,31.1
2021-08-18T14:09:00Z,00000200,00000000,0001.83,0001.42,0000.69,-000.03,0000.48,0000.11,0000.33,0000.37,0000.33,20.4,26.4,12.2,08.5,0679.0,31.1
2021-08-18T14:10:00Z,00000200,00000000,0001.65,0001.39,0000.53,0000.55,0000.37,0000.15,0000.18,0000.36,0000.29,20.4,26.4,12.3,08.5,0679.0,31.1
2021-08-18T14:11:00Z,00000200,00000000,0001.73,0001.33,0000.64,0000.26,-000.04,0000.06,0000.54,0000.20,0000.19,20.4,26.4,12.3,08.5,0678.9,31.1
2021-08-18T14:12:00Z,00000200,00000000,0001.53,0001.13,0000.26,0000.70,0000.34,-000.08,0000.01,0000.29,0000.16,20.4,26.4,12.3,08.5,0678.9,31.1
2021-08-18T14:13:00Z,00000200,00000000,0001.50,0000.95,0000.75,0000.33,0000.12,0000.70,0000.79,0000.49,0000.15,20.4,26.4,12.3,08.5,0678.9,31.1
2021-08-18T14:14:00Z,00000200,00000000,0001.32,0001.22,0000.87,0000.48,-000.19,0000.23,-000.21,-000.01,0000.19,20.4,26.4,12.4,08.6,0678.9,31.1
2021-08-18T14:15:00Z,00000200,00000000,0001.48,0001.07,0000.31,0000.72,0000.32,-000.14,0000.52,0000.21,0000.23,20.4,26.4,12.5,08.6,0678.9,31.1
2021-08-18T14:16:00Z,00000200,00000000,0001.70,0001.17,0000.44,0000.53,0000.16,0000.08,-000.10,0000.24,0000.23,20.4,26.4,12.4,08.6,0678.9,31.1
2021-08-18T14:17:00Z,00000200,00000000,0001.57,0001.33,0000.94,-000.48,0000.53,0000.09,0000.65,0000.49,0000.09,20.4,26.4,12.6,08.7,0678.9,31.1
2021-08-18T14:18:00Z,00000200,00000000,0001.35,0001.03,0000.65,0000.31,-000.15,-000.10,0000.03,0000.49,0000.15,20.4,26.4,12.5,08.7,0678.9,31.1
2021-08-18T14:19:00Z,00000200,00000000,0001.93,0001.22,0000.49,0000.90,0000.22,0000.14,0000.38,-000.09,0000.17,20.4,26.4,12.4,08.6,0678.9,31.1
2021-08-18T14:20:00Z,00000200,00000000,0001.70,0001.18,0001.09,0000.72,0000.45,0000.08,0000.45,0000.46,0000.54,20.4,26.4,12.5,08.6,0678.9,31.2
2021-08-18T14:21:00Z,00000200,00000000,0001.69,0001.10,0000.33,0000.60,0000.20,-000.10,0000.17,0000.02,-000.02,20.4,26.4,12.5,08.7,0678.9,31.1
2021-08-18T14:22:00Z,00000200,00000000,0001.79,0001.18,0000.54,0000.71,0000.22,-000.17,0000.97,0000.69,0000.24,20.4,26.4,12.6,08.7,0678.9,31.1
2021-08-18T14:23:00Z,00000200,00000000,0001.25,0001.16,0000.95,0000.59,0000.17,0000.29,0000.08,0000.20,0000.40,20.4,26.5,12.7,08.8,0678.9,31.1
2021-08-18T14:24:00Z,00000200,00000000,0001.26,0001.28,0000.79,0000.15,0000.33,0000.01,0000.25,0000.09,0000.10,20.4,26.5,12.6,08.8,0678.9,31.1
2021-08-18T14:25:00Z,00000200,00000000,0000.51,0001.10,0000.71,0000.59,0000.14,0000.07,0000.10,0000.32,0000.23,20.4,26.5,12.5,08.7,0678.9,31.1
2021-08-18T14:26:00Z,00000200,00000000,0001.72,0001.53,0000.36,0000.19,0000.36,0000.13,0000.28,0000.15,0000.15,20.4,26.5,12.5,08.7,0678.9,31.1
2021-08-18T14:27:00Z,00000200,00000000,0001.25,0000.87,0000.67,0000.54,0000.24,0000.65,-000.10,0000.48,0000.11,20.5,26.5,12.5,08.7,0678.9,31.1
2021-08-18T14:28:00Z,00000200,00000000,0002.09,0000.80,0000.61,0001.17,0000.07,0000.14,0000.62,0000.18,0000.32,20.5,26.5,12.5,08.7,0678.9,31.1
2021-08-18T14:29:00Z,00000200,00000000,0001.00,0001.11,0000.46,0000.57,0000.20,0000.29,0000.33,0000.19,0000.43,20.5,26.5,12.5,08.7,0678.9,31.1
2021-08-18T14:30:00Z,00000200,00000000,0001.89,0001.15,0000.88,0000.24,0000.24,0000.15,0000.30,0000.56,-000.07,20.5,26.5,12.5,08.7,0678.9,31.1
2021-08-18T14:31:00Z,00000200,00000000,0001.38,0001.15,0000.51,0000.52,0000.51,0000.07,0000.30,0000.11,0000.22,20.5,26.5,12.5,08.7,0678.9,31.1
2021-08-18T14:32:00Z,00000200,00000000,0001.54,0001.66,0000.59,0000.15,0000.24,0000.17,0000.37,0000.44,0000.62,20.5,26.5,12.5,08.7,0678.9,31.1
2021-08-18T14:33:00Z,00000200,00000000,0001.50,0001.37,0000.75,0000.35,0000.05,0000.01,0000.28,0000.14,0000.07,20.5,26.5,12.8,08.9,0678.9,31.1
2021-08-18T14:34:00Z,00000200,00000000,0001.05,0001.43,0000.94,0000.02,0000.43,0000.22,0000.31,0000.50,0000.17,20.5,26.5,12.7,08.8,0678.9,31.1
2021-08-18T14:35:00Z,00000200,00000000,0001.31,0001.62,0000.97,-000.05,0000.17,0000.23,0000.67,-000.02,0000.19,20.5,26.5,12.7,08.8,0678.9,31.1
2021-08-18T14:36:00Z,00000200,00000000,0001.53,0001.32,0000.60,0000.07,0000.10,-000.09,0000.33,0000.72,0000.44,20.5,26.5,12.6,08.8,0678.9,31.1
2021-08-18T14:37:00Z,00000200,00000000,0002.24,0000.93,0000.51,-000.35,0000.27,-000.08,0000.14,0000.05,0000.22,20.5,26.5,12.7,08.8,0678.9,31.1
2021-08-18T14:38:00Z,00000200,00000000,0001.87,0001.23,0000.51,0000.57,0000.10,0000.12,0000.17,0000.39,-000.25,20.5,26.5,12.6,08.8,0678.9,31.1
2021-08-18T14:39:00Z,00000200,00000000,0002.32,0001.28,0000.96,0000.24,0000.22,0000.22,0000.58,0000.34,0000.83,20.5,26.5,12.5,08.8,0678.9,31.1
2021-08-18T14:40:00Z,00000200,00000000,0001.83,0001.60,0000.86,0001.18,0000.18,0000.02,0000.50,0000.19,0000.29,20.5,26.5,12.7,08.8,0678.9,31.1
2021-08-18T14:41:00Z,00000200,00000000,0002.15,0001.30,0000.86,0000.39,0000.09,0000.12,0000.57,0000.69,0000.14,20.5,26.5,12.8,08.9,0678.9,31.1
2021-08-18T14:42:00Z,00000200,00000000,0002.22,0001.29,0000.71,0000.38,0000.11,-000.12,0000.26,0000.11,0000.31,20.6,26.5,12.7,08.8,0678.9,31.1
2021-08-18T14:43:00Z,00000200,00000000,0002.52,0001.49,0000.51,0000.22,0000.10,0000.34,0000.03,0000.23,0000.33,20.6,26.5,12.7,08.9,0678.9,31.1
2021-08-18T14:44:00Z,00000200,00000000,0001.77,0001.14,0001.12,0000.42,0000.17,0000.70,0000.64,0000.87,0000.37,20.6,26.5,12.8,08.9,0678.9,31.1
2021-08-18T14:45:00Z,00000200,00000000,0002.01,0001.39,0000.59,0001.22,0000.25,0000.11,0000.46,0000.25,0000.41,20.6,26.6,12.8,08.9,0678.9,31.2
2021-08-18T14:46:00Z,00000200,00000000,0001.53,0000.95,0000.56,0000.23,0000.71,0000.23,0000.26,0000.14,0000.13,20.6,26.6,12.8,08.9,0678.9,31.1
2021-08-18T14:47:00Z,00000200,00000000,0001.90,0001.45,0000.48,0000.40,0000.41,0000.08,0000.34,0000.42,0000.30,20.6,26.6,12.8,08.9,0678.9,31.1
2021-08-18T14:48:00Z,00000200,00000000,0002.04,0001.40,0000.91,0000.59,0000.10,-000.14,0000.31,0000.26,-000.25,20.6,26.6,12.9,09.0,0678.9,31.1
2021-08-18T14:49:00Z,00000200,00000000,0001.34,0001.47,0000.53,0000.50,0000.29,-000.06,0000.48,0000.48,0000.66,20.6,26.6,12.8,09.0,0678.9,31.1
2021-08-18T14:50:00Z,00000200,00000000,0001.22,0001.15,0000.78,0000.19,-000.02,0000.35,0000.07,0000.24,0000.31,20.6,26.6,12.8,09.0,0678.9,31.1
2021-08-18T14:51:00Z,00000200,00000000,0002.02,0001.08,0000.49,0000.52,0000.05,0000.20,0000.28,0000.02,-000.12,20.6,26.6,12.7,08.9,0678.8,31.1
2021-08-18T14:52:00Z,00000200,00000000,0001.07,0000.52,0000.39,0000.27,0000.01,0000.25,0000.04,0000.47,0000.26,20.6,26.6,12.6,08.8,0678.9,31.1
2021-08-18T14:53:00Z,00000200,00000000,0001.47,0000.72,0000.06,0000.46,0000.21,-000.06,0000.31,0000.24,-000.04,20.6,26.6,12.7,08.9,0678.9,31.1
2021-08-18T14:54:00Z,00000200,00000000,0000.90,0001.15,0000.09,0000.65,0000.09,-000.13,0000.43,-000.26,0000.14,20.7,26.6,12.8,09.0,0678.8,31.1
2021-08-18T14:55:00Z,00000200,00000000,0000.82,0000.69,0000.25,0000.29,0000.23,-000.21,-000.04,0000.29,0000.29,20.7,26.6,12.8,08.9,0678.9,31.1
2021-08-18T14:56:00Z,00000200,00000000,0000.50,0000.56,0000.16,0000.78,0000.21,-000.08,0000.27,0000.31,0000.16,20.7,26.6,12.7,08.9,0678.9,31.1
2021-08-18T14:57:00Z,00000200,40000000,,,,,,,0000.23,-000.48,0000.00,20.7,26.6,12.4,08.7,0678.8,31.1
2021-08-18T14:58:00Z,00000200,60000000,,,,,,,-000.35,0000.31,0000.02,20.5,26.7,12.8,08.8,0677.9,31.1
2021-08-18T14:59:00Z,00000200,20000000,,,,,,,0000.14,0000.10,-000.15,20.5,26.8,12.7,08.7,0677.9,31.1
